Home > Weather > Tønsberg > Past weeks

Flag for Norway Past Weather in Tønsberg, Norway — Yesterday and Last 2 Weeks

Now
57 °F

Overcast.


Feels Like: 55 °F
Forecast: 58 / 69 °F
Wind: 10 mph from Northeast

Location: Oseberg

Current Time: Aug 26, 2016 at 1:56:36 AM

Latest Report: Aug 26, 2016 at 12:50 AM


Visibility: N/A

Pressure: 30.01 "Hg

Humidity: 82%

Dew Point: 52 °F

Location of TønsbergLocation

Past Weather in Tønsberg — Graph

°F

Tønsberg Temperature Yesterday

Maximum temperature yesterday: 57 °F (at 6:50 AM)
Minimum temperature yesterday: 54 °F (at 12:50 AM)
Average temperature yesterday: 56 °F

High & Low Weather Summary for the Past Weeks

 TemperatureHumidityPressure
High66 °F (Aug 22, 1:20 PM)100% (Aug 12, 3:50 AM)30.30 "Hg (Aug 12, 3:50 AM)
Low50 °F (Aug 10, 11:50 PM)59% (Aug 16, 4:20 PM)29.53 "Hg (Aug 12, 3:20 PM)
Average56 °F88%29.99 "Hg
* Reported Aug 10 11:50 PM — Aug 25 11:50 PM, Tønsberg, Weather by CustomWeather, © 2016

Note: Actual official high and low records may vary slightly from our data, if they occured in-between our weather recording intervals... More about our weather records

Advertising

Tønsberg Weather History for the Previous 24 Hours

Scroll right to see more
 ConditionsComfort  
Time TempWeatherWind HumidityBarometerVisibility
11:50 PM
Thu, Aug 25
55 °FOvercast.13 mph82%30.01 "HgN/A
10:50 PM55 °FOvercast.13 mph77%30.04 "HgN/A
9:50 PM57 °FOvercast.12 mph77%30.07 "HgN/A
9:20 PM55 °FOvercast.13 mph82%30.07 "HgN/A
8:50 PM55 °FOvercast.14 mph77%30.07 "HgN/A
7:50 PM55 °FOvercast.13 mph77%30.07 "HgN/A
7:20 PM57 °FOvercast.13 mph72%30.07 "HgN/A
6:50 PM57 °FOvercast.9 mph72%30.07 "HgN/A
6:20 PM57 °FOvercast.12 mph77%30.07 "HgN/A
5:20 PM57 °FOvercast.15 mph77%30.09 "HgN/A
4:50 PM57 °FOvercast.15 mph77%30.09 "HgN/A
4:20 PM57 °FOvercast.14 mph82%30.09 "HgN/A
3:50 PM55 °FOvercast.18 mph82%30.09 "HgN/A
3:20 PM55 °FPartly sunny.21 mph82%30.09 "HgN/A
2:50 PM55 °FPartly sunny.16 mph82%30.09 "HgN/A
2:20 PM55 °FPartly sunny.18 mph82%30.12 "HgN/A
1:50 PM55 °FOvercast.16 mph88%30.12 "HgN/A
1:20 PM55 °FLow clouds.15 mph88%30.12 "HgN/A
12:50 PM55 °FPartly sunny.15 mph88%30.12 "HgN/A
12:20 PM55 °FPartly sunny.13 mph88%30.12 "HgN/A
11:20 AM57 °FPartly sunny.9 mph77%30.12 "HgN/A
10:50 AM57 °FOvercast.10 mph77%30.12 "HgN/A
10:20 AM55 °FOvercast.8 mph82%30.12 "HgN/A
9:50 AM55 °FOvercast.13 mph82%30.12 "HgN/A
9:20 AM55 °FOvercast.15 mph82%30.09 "HgN/A
8:50 AM57 °FOvercast.13 mph77%30.12 "HgN/A
8:20 AM55 °FOvercast.14 mph82%30.12 "HgN/A
7:50 AM57 °FOvercast.12 mph82%30.12 "HgN/A
7:20 AM57 °FOvercast.12 mph82%30.12 "HgN/A
6:50 AM57 °FOvercast.7 mph82%30.12 "HgN/A
6:20 AM55 °FOvercast.9 mph82%30.12 "HgN/A
5:50 AM55 °FOvercast.10 mph82%30.12 "HgN/A
4:50 AM55 °FOvercast.9 mph88%30.15 "HgN/A
3:50 AM55 °FLow clouds.9 mph88%30.15 "HgN/A
2:50 AM55 °FLow clouds.9 mph88%30.15 "HgN/A
1:50 AM55 °FLow clouds.9 mph94%30.15 "HgN/A
Weather by CustomWeather, © 2016

See weather overviewHow to use our weather pages